Station History

Weather Underground - logo

Station Historical Data
Daily Summary for February 21, 2018 Units:  Metric    English   Both
« Previous Day
Next Day »
Daily Weekly Monthly Yearly Custom
  High: Low: Average:
Temperature: 14.4 °C -1.2 °C 6.6 °C
Dew Point: 0.7 °C -5.8 °C -2.3 °C
Humidity: 89 % 26 % 58 %
Wind Speed: 7.4 km/h 0 km/h 1.6 km/h
Wind Gust: 7.4 km/h - -
Wind:- - WSW
Pressure: 1023.6 hPa 1021.2 hPa -
Precipitation: 0 mm    
Historical Graphs
 
 
Tabular Data for February 21, 2018
Time Temperature Dew Point Pressure Wind Wind Speed Wind Gust Humidity Rainfall Rate (Hourly)
00:03 5.3 °C -1.2 °C 1022.6 hPa Calm     63 % 0 mm
00:08 5.2 °C -1.1 °C 1022.6 hPa Calm     64 % 0 mm
00:13 5.1 °C -1.2 °C 1022.6 hPa Calm     64 % 0 mm
00:18 5.1 °C -1.2 °C 1022.2 hPa Calm     64 % 0 mm
00:23 5 °C -1.1 °C 1022.2 hPa Calm     65 % 0 mm
00:28 5 °C -1.1 °C 1022.2 hPa Calm     65 % 0 mm
00:33 5.2 °C -0.9 °C 1022.2 hPa Calm     65 % 0 mm
00:38 5.2 °C -0.1 °C 1022.2 hPa Calm     69 % 0 mm
00:43 5 °C 0.2 °C 1022.2 hPa Calm     71 % 0 mm
00:48 4.8 °C 0.2 °C 1022.2 hPa Calm     72 % 0 mm
00:53 4.7 °C 0.3 °C 1022.2 hPa Calm     73 % 0 mm
00:58 4.6 °C 0.4 °C 1022.2 hPa Calm     74 % 0 mm
01:03 4.5 °C 0.4 °C 1022.2 hPa Calm     75 % 0 mm
01:08 4.3 °C 0.7 °C 1022.2 hPa Calm     77 % 0 mm
01:13 4.2 °C 0.5 °C 1022.2 hPa Calm     77 % 0 mm
01:18 3.9 °C 0.3 °C 1021.9 hPa Calm     77 % 0 mm
01:23 3.8 °C 0.3 °C 1021.9 hPa Calm     78 % 0 mm
01:29 3.6 °C 0.3 °C 1021.9 hPa Calm     79 % 0 mm
01:34 3.4 °C 0.4 °C 1021.9 hPa Calm     81 % 0 mm
01:39 3.1 °C 0.1 °C 1021.9 hPa Calm     81 % 0 mm
01:43 2.8 °C 0.2 °C 1021.9 hPa Calm     83 % 0 mm
01:49 2.8 °C 0.3 °C 1021.9 hPa Calm     84 % 0 mm
01:54 2.7 °C 0.2 °C 1021.9 hPa Calm     84 % 0 mm
01:59 2.6 °C 0.1 °C 1021.9 hPa Calm     84 % 0 mm
02:04 2.4 °C -0.1 °C 1021.9 hPa Calm     84 % 0 mm
02:09 2.3 °C -0.2 °C 1021.9 hPa Calm     84 % 0 mm
02:14 2.2 °C -0.2 °C 1022.2 hPa Calm     84 % 0 mm
02:19 2.2 °C -0.4 °C 1021.9 hPa Calm     83 % 0 mm
02:24 2.1 °C -0.7 °C 1021.9 hPa Calm     82 % 0 mm
02:29 2 °C -0.8 °C 1021.9 hPa Calm     82 % 0 mm
02:34 1.8 °C -0.8 °C 1021.9 hPa ESE 1.9 km/h   83 % 0 mm
02:39 1.8 °C -0.8 °C 1021.9 hPa Calm     83 % 0 mm
02:44 1.9 °C -0.8 °C 1021.9 hPa Calm     82 % 0 mm
02:49 1.8 °C -1.1 °C 1021.9 hPa Calm     81 % 0 mm
02:54 1.6 °C -1.3 °C 1021.6 hPa Calm     81 % 0 mm
02:59 1.4 °C -1.5 °C 1021.6 hPa Calm     81 % 0 mm
03:04 1.2 °C -1.7 °C 1021.6 hPa Calm     81 % 0 mm
03:09 1.2 °C -1.5 °C 1021.6 hPa ESE 1.6 km/h   82 % 0 mm
03:14 1.3 °C -1.6 °C 1021.6 hPa Calm     81 % 0 mm
03:19 1.3 °C -1.6 °C 1021.6 hPa Calm     81 % 0 mm
03:24 1.3 °C -1.8 °C 1021.6 hPa Calm     80 % 0 mm
03:29 1.2 °C -1.9 °C 1021.6 hPa Calm     80 % 0 mm
03:34 1.1 °C -2 °C 1021.6 hPa Calm     80 % 0 mm
03:39 0.9 °C -2.1 °C 1021.6 hPa Calm     80 % 0 mm
03:44 0.8 °C -2.1 °C 1021.6 hPa Calm     81 % 0 mm
03:49 0.7 °C -2.2 °C 1021.6 hPa Calm     81 % 0 mm
03:54 0.7 °C -2.2 °C 1021.6 hPa Calm     81 % 0 mm
03:59 0.5 °C -2.2 °C 1021.6 hPa Calm     82 % 0 mm
04:04 0.4 °C -2.2 °C 1021.9 hPa Calm     83 % 0 mm
04:09 0.4 °C -2.1 °C 1021.6 hPa Calm     83 % 0 mm
04:14 0.4 °C -2.3 °C 1021.6 hPa Calm     82 % 0 mm
04:19 0.4 °C -2.3 °C 1021.9 hPa Calm     82 % 0 mm
04:24 0.3 °C -2.4 °C 1021.9 hPa Calm     82 % 0 mm
04:29 0.3 °C -2.4 °C 1021.9 hPa Calm     82 % 0 mm
04:34 0.3 °C -2.3 °C 1021.9 hPa Calm     83 % 0 mm
04:39 0.2 °C -2.4 °C 1021.9 hPa Calm     83 % 0 mm
04:44 0.1 °C -2.5 °C 1021.9 hPa Calm     83 % 0 mm
04:49 0.1 °C -2.1 °C 1021.9 hPa Calm     85 % 0 mm
04:54 0.1 °C -2.3 °C 1021.9 hPa Calm     84 % 0 mm
04:59 0.1 °C -2.5 °C 1021.9 hPa Calm     83 % 0 mm
05:05 0.1 °C -2.3 °C 1021.9 hPa Calm     84 % 0 mm
05:10 0.2 °C -2.4 °C 1022.2 hPa Calm     83 % 0 mm
05:15 0.3 °C -2.4 °C 1022.2 hPa Calm     82 % 0 mm
05:20 0.3 °C -2.4 °C 1022.2 hPa Calm     82 % 0 mm
05:25 0.3 °C -2.4 °C 1022.2 hPa Calm     82 % 0 mm
05:30 0.2 °C -2.5 °C 1022.2 hPa Calm     82 % 0 mm
05:35 0.2 °C -2.5 °C 1022.2 hPa Calm     82 % 0 mm
05:40 0.3 °C -2.4 °C 1022.6 hPa Calm     82 % 0 mm
05:45 0.3 °C -2.6 °C 1022.2 hPa Calm     81 % 0 mm
05:50 0.3 °C -2.6 °C 1022.2 hPa Calm     81 % 0 mm
05:55 0.2 °C -2.7 °C 1022.2 hPa Calm     81 % 0 mm
06:00 0.1 °C -2.8 °C 1022.2 hPa Calm     81 % 0 mm
06:05 -0.1 °C -3 °C 1022.6 hPa Calm     81 % 0 mm
06:10 -0.1 °C -2.8 °C 1022.6 hPa Calm     82 % 0 mm
06:15 0.1 °C -2.7 °C 1022.6 hPa Calm     82 % 0 mm
06:20 0 °C -2.7 °C 1022.6 hPa Calm     82 % 0 mm
06:25 -0.2 °C -2.7 °C 1022.6 hPa Calm     83 % 0 mm
06:30 -0.4 °C -2.8 °C 1022.9 hPa Calm     84 % 0 mm
06:35 -0.6 °C -2.8 °C 1022.9 hPa Calm     85 % 0 mm
06:40 -0.7 °C -2.8 °C 1022.9 hPa Calm     86 % 0 mm
06:45 -0.9 °C -2.9 °C 1023.2 hPa Calm     86 % 0 mm
06:50 -1 °C -2.9 °C 1023.2 hPa Calm     87 % 0 mm
06:55 -1.1 °C -3 °C 1023.2 hPa Calm     87 % 0 mm
07:00 -1.2 °C -3.1 °C 1023.2 hPa Calm     87 % 0 mm
07:05 -1.1 °C -2.8 °C 1023.2 hPa Calm     88 % 0 mm
07:10 -1.1 °C -2.8 °C 1023.2 hPa Calm     88 % 0 mm
07:15 -1 °C -2.6 °C 1023.2 hPa Calm     89 % 0 mm
07:20 -0.8 °C -2.4 °C 1023.2 hPa Calm     89 % 0 mm
07:25 -0.4 °C -2.2 °C 1023.2 hPa Calm     88 % 0 mm
07:30 -0.1 °C -1.9 °C 1023.2 hPa Calm     87 % 0 mm
07:35 0.3 °C -1.9 °C 1023.2 hPa Calm     85 % 0 mm
07:40 0.7 °C -1.7 °C 1023.2 hPa Calm     84 % 0 mm
07:45 1.4 °C -0.9 °C 1023.2 hPa SE 1.6 km/h 1.6 km/h 84 % 0 mm
07:50 2.2 °C -0.6 °C 1023.2 hPa Calm     82 % 0 mm
07:55 2.9 °C -0.2 °C 1023.2 hPa ESE 1.9 km/h 1.9 km/h 80 % 0 mm
08:00 3.4 °C 0.1 °C 1023.2 hPa Calm     79 % 0 mm
08:05 3.8 °C 0 °C 1023.2 hPa Calm     76 % 0 mm
08:10 4.1 °C 0.3 °C 1023.2 hPa Calm     76 % 0 mm
08:15 4.7 °C 0.5 °C 1023.2 hPa Calm     74 % 0 mm
08:20 5.1 °C 0.1 °C 1023.2 hPa SSE 1.9 km/h 1.9 km/h 70 % 0 mm
08:25 5.4 °C -0.1 °C 1023.2 hPa SE 1.9 km/h 1.9 km/h 68 % 0 mm
08:30 5.7 °C -0.6 °C 1023.2 hPa SE 5.6 km/h 5.6 km/h 64 % 0 mm
08:35 6 °C -0.7 °C 1023.2 hPa South 3.7 km/h 3.7 km/h 62 % 0 mm
08:40 6.7 °C -0.1 °C 1023.2 hPa SSW 3.7 km/h 3.7 km/h 62 % 0 mm
08:45 7.1 °C -1.4 °C 1023.2 hPa SSE 3.7 km/h 3.7 km/h 55 % 0 mm
08:50 7.5 °C -1.7 °C 1023.2 hPa SE 5.6 km/h 5.6 km/h 52 % 0 mm
08:55 7.8 °C -1.9 °C 1023.2 hPa Calm   0.8 km/h 50 % 0 mm
09:00 8 °C -2.3 °C 1023.2 hPa NE 1.9 km/h 1.9 km/h 48 % 0 mm
09:05 8.2 °C -1.9 °C 1023.2 hPa SSE 5.6 km/h 5.6 km/h 49 % 0 mm
09:10 8.4 °C -2 °C 1023.2 hPa NNW 3.7 km/h 3.7 km/h 48 % 0 mm
09:15 8.6 °C -1.8 °C 1023.2 hPa Calm   0.3 km/h 48 % 0 mm
09:20 8.7 °C -2.1 °C 1023.2 hPa SSE 5.6 km/h 5.6 km/h 47 % 0 mm
09:25 8.9 °C -1.6 °C 1023.2 hPa SSW 3.7 km/h 3.7 km/h 48 % 0 mm
09:30 8.9 °C -1.8 °C 1023.2 hPa NNW 3.7 km/h 3.7 km/h 47 % 0 mm
09:35 8.9 °C -1.8 °C 1023.2 hPa SSE 5.6 km/h 5.6 km/h 47 % 0 mm
09:40 9.3 °C -1.7 °C 1023.2 hPa SSE 3.7 km/h 3.7 km/h 46 % 0 mm
09:45 9.6 °C -2.1 °C 1023.2 hPa ESE 5.6 km/h 5.6 km/h 44 % 0 mm
09:50 9.9 °C -2.1 °C 1023.2 hPa South 3.7 km/h 3.7 km/h 43 % 0 mm
09:56 10.2 °C -2.2 °C 1023.2 hPa SSE 5.6 km/h 5.6 km/h 42 % 0 mm
10:01 10.3 °C -1.4 °C 1023.2 hPa SSW 5.6 km/h 5.6 km/h 44 % 0 mm
10:06 10 °C -2 °C 1023.2 hPa South 4.8 km/h 4.8 km/h 43 % 0 mm
10:11 10.1 °C -2.3 °C 1023.2 hPa North 1.9 km/h 1.9 km/h 42 % 0 mm
10:16 10.3 °C -2.1 °C 1023.2 hPa SSE 5.6 km/h 5.6 km/h 42 % 0 mm
10:21 10.7 °C -1.4 °C 1023.6 hPa WNW 3.7 km/h 3.7 km/h 43 % 0 mm
10:26 10.9 °C -1.2 °C 1023.2 hPa NW 3.7 km/h 3.7 km/h 43 % 0 mm
10:31 11.3 °C -1.2 °C 1023.2 hPa South 7.4 km/h 7.4 km/h 42 % 0 mm
10:36 11.3 °C -1.8 °C 1023.2 hPa SSW 1.9 km/h 1.9 km/h 40 % 0 mm
10:41 11.4 °C -1.1 °C 1023.2 hPa NNW 1.9 km/h 1.9 km/h 42 % 0 mm
10:46 11.7 °C -1.2 °C 1023.2 hPa NNW 5.6 km/h 5.6 km/h 41 % 0 mm
10:51 11.6 °C -0.9 °C 1023.2 hPa NW 1.9 km/h 1.9 km/h 42 % 0 mm
10:56 11.6 °C -1.6 °C 1023.6 hPa SSE 5.6 km/h 5.6 km/h 40 % 0 mm
11:01 11.8 °C -0.7 °C 1023.2 hPa SSE 5.6 km/h 5.6 km/h 42 % 0 mm
11:06 11.8 °C -1.7 °C 1023.2 hPa NNW 1.9 km/h 1.9 km/h 39 % 0 mm
11:11 11.9 °C -1.3 °C 1023.2 hPa South 5.6 km/h 5.6 km/h 40 % 0 mm
11:16 11.8 °C -1.7 °C 1023.2 hPa WSW 5.6 km/h 5.6 km/h 39 % 0 mm
11:21 11.7 °C -1.8 °C 1023.2 hPa NW 5.6 km/h 5.6 km/h 39 % 0 mm
11:26 11.8 °C -1 °C 1023.2 hPa SSE 3.7 km/h 3.7 km/h 41 % 0 mm
11:31 11.9 °C -1.6 °C 1023.2 hPa NW 3.7 km/h 3.7 km/h 39 % 0 mm
11:36 11.8 °C -1.3 °C 1022.9 hPa ESE 5.6 km/h 5.6 km/h 40 % 0 mm
11:41 12 °C -1.6 °C 1022.9 hPa South 5.6 km/h 5.6 km/h 39 % 0 mm
11:46 12.7 °C -1.3 °C 1022.9 hPa SSE 1.9 km/h 1.9 km/h 38 % 0 mm
11:51 12.9 °C -1.8 °C 1022.9 hPa West 1.9 km/h   36 % 0 mm
11:56 12.8 °C -1.9 °C 1022.9 hPa NNW 1.6 km/h 1.6 km/h 36 % 0 mm
12:01 12.9 °C -1.4 °C 1022.6 hPa NW 7.4 km/h 7.4 km/h 37 % 0 mm
12:06 13.2 °C -1.2 °C 1022.6 hPa SE 3.7 km/h 3.7 km/h 37 % 0 mm
12:11 13.4 °C -2.6 °C 1022.6 hPa WNW 5.6 km/h 5.6 km/h 33 % 0 mm
12:16 13.1 °C -3.2 °C 1022.6 hPa NW 5.6 km/h 5.6 km/h 32 % 0 mm
12:21 12.9 °C -3 °C 1022.6 hPa NW 7.4 km/h 7.4 km/h 33 % 0 mm
12:26 12.9 °C -3.4 °C 1022.6 hPa West 5.6 km/h 5.6 km/h 32 % 0 mm
12:31 13.1 °C -2.8 °C 1022.2 hPa West 3.7 km/h 3.7 km/h 33 % 0 mm
12:36 13.4 °C -2.2 °C 1022.2 hPa Calm   0.2 km/h 34 % 0 mm
12:42 13.8 °C -2.6 °C 1022.2 hPa NW 1.9 km/h 1.9 km/h 32 % 0 mm
12:46 13.7 °C -3.2 °C 1022.2 hPa NNW 6.4 km/h 6.4 km/h 31 % 0 mm
12:52 13.4 °C -3.4 °C 1022.2 hPa WNW 5.6 km/h 5.6 km/h 31 % 0 mm
12:57 13.3 °C -3.5 °C 1022.2 hPa WNW 5.6 km/h 5.6 km/h 31 % 0 mm
13:02 13.3 °C -3.4 °C 1021.9 hPa NW 5.6 km/h 5.6 km/h 31 % 0 mm
13:07 13.3 °C -4.4 °C 1021.9 hPa ESE 3.7 km/h 3.7 km/h 29 % 0 mm
13:12 13.3 °C -3.4 °C 1021.9 hPa WNW 1.9 km/h 1.9 km/h 31 % 0 mm
13:17 13.4 °C -3.4 °C 1021.9 hPa NW 7.4 km/h 7.4 km/h 31 % 0 mm
13:22 13.4 °C -2.9 °C 1021.9 hPa NW 3.7 km/h 3.7 km/h 32 % 0 mm
13:27 13.4 °C -3.8 °C 1021.9 hPa West 6.4 km/h 6.4 km/h 30 % 0 mm
13:32 13.7 °C -3.2 °C 1021.9 hPa NW 3.7 km/h   31 % 0 mm
13:37 13.7 °C -4 °C 1021.9 hPa SSE 3.7 km/h 3.7 km/h 29 % 0 mm
13:42 13.7 °C -5 °C 1021.9 hPa West 5.6 km/h 5.6 km/h 27 % 0 mm
13:47 13.7 °C -4 °C 1021.9 hPa NW 5.6 km/h 5.6 km/h 29 % 0 mm
13:52 13.8 °C -4 °C 1021.6 hPa NW 5.6 km/h 5.6 km/h 29 % 0 mm
13:57 13.7 °C -4 °C 1021.6 hPa NW 1.9 km/h 1.9 km/h 29 % 0 mm
14:02 13.7 °C -5 °C 1021.6 hPa South 5.6 km/h 5.6 km/h 27 % 0 mm
14:07 13.9 °C -4.3 °C 1021.6 hPa NW 3.7 km/h 3.7 km/h 28 % 0 mm
14:12 14.1 °C -2.8 °C 1021.6 hPa Calm     31 % 0 mm
14:17 14.2 °C -4.6 °C 1021.6 hPa NNW 3.7 km/h   27 % 0 mm
14:22 14.3 °C -3.6 °C 1021.6 hPa SE 5.6 km/h 5.6 km/h 29 % 0 mm
14:27 14.4 °C -3.9 °C 1021.6 hPa South 1.9 km/h 2.7 km/h 28 % 0 mm
14:32 14.4 °C -3.9 °C 1021.6 hPa NW 3.2 km/h 3.2 km/h 28 % 0 mm
14:37 14.3 °C -4.5 °C 1021.6 hPa North 5.6 km/h 5.6 km/h 27 % 0 mm
14:42 14.2 °C -4.1 °C 1021.6 hPa WSW 3.7 km/h 3.7 km/h 28 % 0 mm
14:47 14.1 °C -3.7 °C 1021.6 hPa West 5.6 km/h 5.6 km/h 29 % 0 mm
14:52 14 °C -3.8 °C 1021.6 hPa North 6.4 km/h 6.4 km/h 29 % 0 mm
14:57 13.9 °C -3.9 °C 1021.6 hPa NNW 3.7 km/h 3.7 km/h 29 % 0 mm
15:02 13.9 °C -4.3 °C 1021.6 hPa WSW 5.6 km/h 5.6 km/h 28 % 0 mm
15:07 13.8 °C -3.9 °C 1021.6 hPa NNW 5.6 km/h 5.6 km/h 29 % 0 mm
15:13 13.8 °C -4.9 °C 1021.6 hPa WNW 5.6 km/h 5.6 km/h 27 % 0 mm
15:18 13.7 °C -5.5 °C 1021.2 hPa NW 5.6 km/h 5.6 km/h 26 % 0 mm
15:23 13.6 °C -4.6 °C 1021.2 hPa NW 5.6 km/h 5.6 km/h 28 % 0 mm
15:28 13.7 °C -4.6 °C 1021.2 hPa SW 3.7 km/h   28 % 0 mm
15:33 13.8 °C -4 °C 1021.2 hPa NW 1.9 km/h 1.9 km/h 29 % 0 mm
15:38 13.8 °C -5.4 °C 1021.2 hPa NNW 1.9 km/h 1.9 km/h 26 % 0 mm
15:43 13.6 °C -5.1 °C 1021.2 hPa NW 3.7 km/h 3.7 km/h 27 % 0 mm
15:48 13.4 °C -4.7 °C 1021.2 hPa NW 5.6 km/h 5.6 km/h 28 % 0 mm
15:53 13.3 °C -5.3 °C 1021.2 hPa NW 1.9 km/h   27 % 0 mm
15:57 13.3 °C -5.8 °C 1021.2 hPa NW 3.7 km/h 3.7 km/h 26 % 0 mm
16:02 13.3 °C -5.3 °C 1021.2 hPa NW 5.6 km/h 5.6 km/h 27 % 0 mm
16:08 13.2 °C -5.4 °C 1021.2 hPa WNW 3.7 km/h 3.7 km/h 27 % 0 mm
16:13 13.2 °C -5.4 °C 1021.2 hPa NW 1.9 km/h 1.9 km/h 27 % 0 mm
16:18 13.1 °C -5 °C 1021.2 hPa NW 3.2 km/h 3.2 km/h 28 % 0 mm
16:23 13 °C -5.1 °C 1021.2 hPa North 5.6 km/h 5.6 km/h 28 % 0 mm
16:28 12.9 °C -5.7 °C 1021.2 hPa WNW 3.7 km/h 3.7 km/h 27 % 0 mm
16:33 12.9 °C -5.2 °C 1021.2 hPa NW 5.6 km/h 5.6 km/h 28 % 0 mm
16:38 12.9 °C -5.7 °C 1021.2 hPa NW 5.6 km/h 5.6 km/h 27 % 0 mm
16:43 12.8 °C -5.7 °C 1021.2 hPa NW 3.7 km/h 3.7 km/h 27 % 0 mm
16:48 12.8 °C -5.3 °C 1021.2 hPa NW 1.9 km/h 1.9 km/h 28 % 0 mm
16:53 12.8 °C -5.3 °C 1021.2 hPa North 3.7 km/h 3.7 km/h 28 % 0 mm
16:58 12.6 °C -5.4 °C 1021.2 hPa NW 3.7 km/h 3.7 km/h 28 % 0 mm
17:03 12.5 °C -4.6 °C 1021.6 hPa WNW 1.9 km/h 1.9 km/h 30 % 0 mm
17:08 12.4 °C -5.2 °C 1021.6 hPa WNW 1.9 km/h 1.9 km/h 29 % 0 mm
17:13 12.3 °C -4.8 °C 1021.6 hPa WNW 1.9 km/h 1.9 km/h 30 % 0 mm
17:18 12.1 °C -4.2 °C 1021.6 hPa WNW 1.9 km/h   32 % 0 mm
17:23 11.9 °C -4.3 °C 1021.6 hPa NW 1.9 km/h 1.9 km/h 32 % 0 mm
17:28 11.7 °C -4.4 °C 1021.6 hPa Calm     32 % 0 mm
17:33 11.5 °C -4.7 °C 1021.6 hPa Calm     32 % 0 mm
17:38 11.4 °C -4.7 °C 1021.6 hPa Calm     32 % 0 mm
17:43 11.2 °C -4.1 °C 1021.6 hPa Calm     34 % 0 mm
17:48 10.9 °C -4.4 °C 1021.6 hPa Calm     34 % 0 mm
17:53 10.6 °C -3.5 °C 1021.6 hPa Calm     37 % 0 mm
17:58 10.2 °C -3.2 °C 1021.6 hPa Calm     39 % 0 mm
18:03 9.9 °C -4.2 °C 1021.6 hPa Calm     37 % 0 mm
18:08 9.6 °C -3.7 °C 1021.6 hPa Calm     39 % 0 mm
18:13 9.3 °C -3.7 °C 1021.6 hPa Calm     40 % 0 mm
18:18 8.9 °C -2.4 °C 1021.6 hPa Calm     45 % 0 mm
18:23 8.6 °C -2.1 °C 1021.6 hPa Calm     47 % 0 mm
18:28 8.3 °C -1.8 °C 1021.6 hPa Calm     49 % 0 mm
18:33 7.9 °C -1.8 °C 1021.6 hPa Calm     50 % 0 mm
18:38 7.6 °C -1.9 °C 1021.6 hPa Calm     51 % 0 mm
18:43 7.3 °C -2.4 °C 1021.6 hPa Calm     50 % 0 mm
18:48 7.1 °C -1.1 °C 1021.6 hPa Calm     56 % 0 mm
18:53 6.8 °C -1.2 °C 1021.6 hPa Calm     57 % 0 mm
18:58 6.7 °C -0.1 °C 1021.9 hPa Calm     62 % 0 mm
19:03 6.6 °C -0.2 °C 1021.9 hPa Calm     62 % 0 mm
19:08 6.5 °C -0.7 °C 1021.9 hPa SSE 1.9 km/h   60 % 0 mm
19:13 6.2 °C -1.1 °C 1021.9 hPa Calm     60 % 0 mm
19:18 6.1 °C -0.8 °C 1021.9 hPa Calm     61 % 0 mm
19:23 6.2 °C -0.6 °C 1021.9 hPa Calm     62 % 0 mm
19:28 6.2 °C -0.8 °C 1021.9 hPa Calm     61 % 0 mm
19:33 6.1 °C -1.1 °C 1021.9 hPa Calm     60 % 0 mm
19:38 6 °C -1.4 °C 1021.9 hPa Calm     59 % 0 mm
19:43 5.9 °C -1.2 °C 1021.9 hPa Calm     60 % 0 mm
19:48 5.9 °C -1.9 °C 1021.9 hPa Calm     57 % 0 mm
19:53 6.2 °C -1.7 °C 1021.9 hPa Calm     57 % 0 mm
19:58 6.2 °C -1.7 °C 1021.9 hPa Calm     57 % 0 mm
20:03 6.2 °C -2.4 °C 1021.9 hPa Calm     54 % 0 mm
20:08 6.3 °C -2.8 °C 1021.9 hPa East 1.9 km/h   52 % 0 mm
20:13 6.4 °C -3 °C 1021.9 hPa East 1.9 km/h   51 % 0 mm
20:18 6.6 °C -3.2 °C 1021.6 hPa Calm     50 % 0 mm
20:23 6.7 °C -3.3 °C 1021.6 hPa Calm     49 % 0 mm
20:28 6.6 °C -3.6 °C 1021.6 hPa Calm     48 % 0 mm
20:33 6.4 °C -3.5 °C 1021.6 hPa Calm     49 % 0 mm
20:38 6.2 °C -3.8 °C 1021.6 hPa Calm     49 % 0 mm
20:43 6 °C -2.6 °C 1021.9 hPa Calm     54 % 0 mm
20:48 5.5 °C -1.4 °C 1021.9 hPa Calm     61 % 0 mm
20:53 4.9 °C -1.5 °C 1021.9 hPa Calm     63 % 0 mm
20:58 4.5 °C -1.3 °C 1022.2 hPa Calm     66 % 0 mm
21:03 4.1 °C -1.3 °C 1022.2 hPa Calm     68 % 0 mm
21:08 3.8 °C -1.6 °C 1022.2 hPa Calm     68 % 0 mm
21:13 3.4 °C -1.9 °C 1022.2 hPa Calm     68 % 0 mm
21:18 3.4 °C -1.4 °C 1022.6 hPa Calm     71 % 0 mm
21:23 3.4 °C -1.2 °C 1022.6 hPa Calm     72 % 0 mm
21:28 3.4 °C -1.3 °C 1022.6 hPa Calm     71 % 0 mm
21:33 3.5 °C -1.4 °C 1022.6 hPa Calm     70 % 0 mm
21:38 3.6 °C -1.8 °C 1022.2 hPa Calm     68 % 0 mm
21:43 3.5 °C -1.3 °C 1022.6 hPa Calm     71 % 0 mm
21:48 3.3 °C -1.3 °C 1022.6 hPa Calm     72 % 0 mm
21:53 3.1 °C -1.3 °C 1022.6 hPa Calm     73 % 0 mm
21:58 3.1 °C -1.4 °C 1022.9 hPa Calm     72 % 0 mm
22:03 3.2 °C -1.8 °C 1022.6 hPa Calm     70 % 0 mm
22:08 3.3 °C -1.9 °C 1022.9 hPa Calm     69 % 0 mm
22:09 3.3 °C -1.9 °C 1022.9 hPa Calm     69 % 0 mm
22:14 3.2 °C -1.7 °C 1022.9 hPa Calm     70 % 0 mm
22:19 3.2 °C -1.6 °C 1022.9 hPa Calm     71 % 0 mm
22:24 3.2 °C -1.6 °C 1022.9 hPa Calm     71 % 0 mm
22:29 3 °C -1.6 °C 1022.9 hPa Calm     72 % 0 mm
22:34 2.9 °C -1.4 °C 1022.9 hPa Calm     73 % 0 mm
22:39 2.9 °C -2.2 °C 1022.9 hPa ESE 1.9 km/h   69 % 0 mm
22:44 3.1 °C -2.6 °C 1023.2 hPa Calm     66 % 0 mm
22:49 3.2 °C -2.8 °C 1023.2 hPa Calm     65 % 0 mm
22:54 3.1 °C -2.5 °C 1023.2 hPa Calm     67 % 0 mm
22:59 2.8 °C -2.7 °C 1023.2 hPa Calm     67 % 0 mm
23:04 2.8 °C -2.7 °C 1023.2 hPa Calm     67 % 0 mm
23:09 2.7 °C -2.1 °C 1023.2 hPa Calm     71 % 0 mm
23:14 2.4 °C -1.9 °C 1023.2 hPa Calm     73 % 0 mm
23:19 2.2 °C -1.9 °C 1023.2 hPa Calm     74 % 0 mm
23:24 2 °C -1.8 °C 1023.2 hPa Calm     76 % 0 mm
23:29 1.9 °C -1.9 °C 1023.2 hPa Calm     76 % 0 mm
23:34 1.8 °C -1.9 °C 1023.2 hPa Calm     76 % 0 mm
23:39 1.9 °C -1.8 °C 1023.2 hPa Calm     76 % 0 mm
23:44 2.1 °C -2.1 °C 1023.6 hPa Calm     74 % 0 mm
23:49 2 °C -2.3 °C 1023.6 hPa Calm     73 % 0 mm
23:54 1.9 °C -2.6 °C 1023.6 hPa Calm     72 % 0 mm
23:59 1.9 °C -2.1 °C 1023.6 hPa Calm     75 % 0 mm
Park Place, Exeter, Tulare County, California, USA
Compliments of Weather Underground - 2.75 mb